Location: Unspecified
(0.0000°N, 0.0000°E)
Time: 03:59:24
(UTC+00:00)

Vanguard 2 Rocket - All Passes

Search period start: 29 May 2017 00:00
Search period end: 08 June 2017 00:00
Orbit: 553 x 3328 km, 32.9° (Epoch: 27 May)

Date Brightness Start Highest point End Pass type
(mag) Time Alt. Az. Time Alt. Az. Time Alt. Az.
29 May - 02:02:09 10° SSW 02:05:36 29° SE 02:09:40 10° E visible
29 May - 04:14:34 10° W 04:18:43 30° NNW 04:24:46 10° NNE visible
29 May - 06:33:16 10° NNW 06:35:13 11° N 06:37:22 10° N daylight
29 May - 08:51:27 10° N 08:55:40 12° NNE 09:00:25 10° NNE daylight
29 May - 11:04:09 10° NNW 11:17:42 27° NNE 11:33:19 10° ENE daylight
29 May - 13:18:45 10° NW 13:38:15 61° NE 13:56:02 10° ESE daylight
29 May - 15:36:57 10° WNW 15:57:03 64° SW 16:11:28 10° SE daylight
29 May - 18:02:34 10° W 18:14:15 22° SW 18:22:46 10° SSE visible
30 May - 01:04:36 10° S 01:06:29 13° SSE 01:08:22 10° ESE night (unlit)
30 May - 03:15:16 10° WSW 03:19:14 49° NNW 03:24:48 10° NE visible
30 May - 05:31:57 10° NW 05:34:24 12° NNW 05:37:14 10° N visible
30 May - 10:04:43 10° NNW 10:14:57 20° NNE 10:27:22 10° ENE daylight
30 May - 12:18:08 10° NW 12:35:44 47° NNE 12:54:03 10° ESE daylight
30 May - 14:34:31 10° WNW 14:55:10 83° SW 15:11:39 10° SE daylight
30 May - 16:56:53 10° W 17:13:03 34° SW 17:24:31 10° SSE daylight
31 May - 02:16:17 10° SW 02:20:11 77° SE 02:24:56 10° ENE visible
31 May - 04:31:09 10° NW 04:34:06 15° NNW 04:37:46 10° NNE visible
31 May - 09:06:10 10° N 09:12:23 14° NNE 09:19:44 10° NE daylight
31 May - 11:18:07 10° NNW 11:33:13 36° NNE 11:50:46 10° E daylight
31 May - 13:32:58 10° NW 13:52:55 79° NE 14:11:07 10° ESE daylight
31 May - 15:52:35 10° WNW 16:11:31 47° SW 16:25:33 10° SSE daylight
31 May - 18:21:44 10° WSW 18:29:37 15° SSW 18:35:56 10° S visible
01 Jun - 01:17:36 10° SSW 01:21:14 32° SE 01:24:56 10° E night (unlit)
01 Jun - 03:30:58 10° WNW 03:34:17 22° NNW 03:38:31 10° NNE visible
01 Jun - 10:18:42 10° NNW 10:30:50 26° NNE 10:45:58 10° E daylight
01 Jun - 12:32:10 10° NW 12:50:31 63° NE 13:09:43 10° ESE daylight
01 Jun - 14:49:31 10° WNW 15:09:38 63° SW 15:25:58 10° SE daylight
01 Jun - 17:14:32 10° W 17:28:03 24° SSW 17:38:12 10° SSE daylight
02 Jun - 00:19:17 10° S 00:22:02 16° SSE 00:24:32 10° ESE night (unlit)
02 Jun - 02:31:15 10° WSW 02:34:55 38° NNW 02:39:18 10° NE visible
02 Jun - 09:20:01 10° NNW 09:28:37 18° NNE 09:39:25 10° ENE daylight
02 Jun - 11:32:03 10° NW 11:48:11 48° NE 12:07:15 10° ESE daylight
02 Jun - 13:47:32 10° WNW 14:07:25 81° SW 14:25:44 10° SE daylight
02 Jun - 16:09:06 10° W 16:26:16 35° SW 16:39:26 10° SSE daylight
02 Jun - 18:43:04 10° SW 18:45:36 11° SSW 18:47:57 10° SSW visible
03 Jun - 01:31:52 10° SW 01:35:55 89° NW 01:40:03 10° NE night (unlit)
03 Jun - 08:23:07 10° N 08:26:35 11° NNE 08:30:30 10° NE daylight
03 Jun - 10:32:32 10° NNW 10:46:05 36° NE 11:03:29 10° E daylight
03 Jun - 12:46:26 10° NW 13:05:04 82° NE 13:24:45 10° ESE daylight
03 Jun - 15:05:12 10° WNW 15:24:14 47° SW 15:40:02 10° SE daylight
03 Jun - 17:33:26 10° WSW 17:43:39 17° SSW 17:51:48 10° S daylight
04 Jun - 00:32:40 10° SW 00:36:56 39° SSE 00:40:37 10° ENE night (unlit)
04 Jun - 02:47:22 10° WNW 02:49:52 16° NNW 02:52:39 10° N visible
04 Jun - 09:33:40 10° NNW 09:44:13 25° NNE 09:58:12 10° E daylight
04 Jun - 11:46:07 10° NW 12:02:48 64° NE 12:22:53 10° ESE daylight
04 Jun - 14:02:35 10° WNW 14:21:57 62° SW 14:40:00 10° SE daylight
04 Jun - 16:26:43 10° W 16:41:31 26° SSW 16:53:16 10° SSE daylight
04 Jun - 23:33:34 10° SSW 23:37:37 21° SSE 23:40:52 10° ESE night (unlit)
05 Jun - 01:47:00 10° W 01:50:37 31° NW 01:54:16 10° NNE night (unlit)
05 Jun - 08:35:44 10° N 08:42:35 16° NNE 08:51:11 10° ENE daylight
05 Jun - 10:46:26 10° NW 11:00:50 48° NE 11:19:57 10° ESE daylight
05 Jun - 13:01:04 10° WNW 13:19:34 79° SW 13:39:19 10° SE daylight
05 Jun - 15:21:44 10° W 15:39:12 35° SSW 15:53:57 10° SSE daylight
05 Jun - 17:53:16 10° SW 17:59:53 13° SSW 18:05:31 10° S daylight
05 Jun - 22:34:27 10° SSW 22:37:51 15° SSE 22:40:37 10° SE night (unlit)
06 Jun - 00:47:05 10° WSW 00:51:40 74° NW 00:55:32 10° NE night (unlit)
06 Jun - 09:47:22 10° NNW 09:59:14 35° NE 10:15:47 10° E daylight
06 Jun - 12:00:26 10° NW 12:17:17 84° NE 12:37:52 10° ESE daylight
06 Jun - 14:18:17 10° WNW 14:36:44 47° SW 14:54:03 10° SE daylight
06 Jun - 16:45:23 10° WSW 16:57:24 19° SSW 17:07:13 10° SSE daylight
06 Jun - 21:35:15 10° S 21:37:36 11° SSE 21:39:39 10° SSE visible
06 Jun - 23:47:17 10° SW 23:52:38 50° SSE 23:56:33 10° ENE night (unlit)
07 Jun - 02:03:41 10° WNW 02:05:25 12° NNW 02:07:09 10° N night (unlit)
07 Jun - 08:49:00 10° NNW 08:57:56 23° NE 09:10:12 10° E daylight
07 Jun - 11:00:31 10° NW 11:15:18 65° NE 11:35:33 10° ESE daylight
07 Jun - 13:16:10 10° WNW 13:34:13 60° SW 13:53:32 10° SE daylight
07 Jun - 15:39:15 10° WSW 15:54:43 26° SSW 16:07:55 10° SSE daylight
07 Jun - 18:12:46 10° SSW 18:16:36 11° SSW 18:20:02 10° S visible
07 Jun - 20:35:43 10° S 20:36:51 10° S 20:37:55 10° SSE visible
07 Jun - 22:47:25 10° SSW 22:53:12 29° SSE 22:57:14 10° E night (unlit)
